Location: Middelsbur
(53.6609°N, 7.5020°E)
Time: 00:27:50
(UTC+00:00)

Meteor 2-3 Rocket - Pass Details

Date: 06 July 2020
Orbit: 843 x 884 km, 81.2° (Epoch: 03 August)

Event Time Altitude Azimuth Distance (km) Brightness Sun altitude
Exits shadow 23:12:54 20° 178° (S) 1,903 4.9 -13.6°
Maximum altitude 23:16:56 70° 99° (E) 920 3.8 -13.7°
Drops below altitude 10° 23:22:39 10° 17° (NNE) 2,529 7.4 -13.7°
Sets 23:25:07 0° 15° (NNE) 3,477 8.4 -13.8°
